ARE4404 SKBO-SVMI

Flight info

Callsign ARE4404
Flight time 1h 34m
Altitude 35000
Route DANSA4R AKROB DCT KIKAS UP533 PBL ALDAK1
Aircraft A320/M-SDE3FGHIRWY/LB1

Departure

Time 2026-05-05 18:13
Airport El Dorado International Airport (SKBO)

Arrival

Time 2026-05-05 19:48
Airport Maiquetía Simón Bolívar International Airport (SVMI)
Time Latitude Longitude Altitude Speed Heading
2026-05-05 17:29 4.70142 -74.14352 8373 ft 0 kts 208°
2026-05-05 18:02 4.70161 -74.14341 8371 ft 4 kts 222°
2026-05-05 18:02 4.70176 -74.14321 8395 ft 4 kts 263°
2026-05-05 18:03 4.70174 -74.14306 8368 ft 0 kts 306°
2026-05-05 18:05 4.70175 -74.14308 8367 ft 2 kts 306°
2026-05-05 18:05 4.70187 -74.14323 8393 ft 4 kts 307°
2026-05-05 18:05 4.70214 -74.14359 8373 ft 8 kts 307°
2026-05-05 18:05 4.70256 -74.14413 8371 ft 10 kts 314°
2026-05-05 18:06 4.70313 -74.14396 8373 ft 9 kts 38°
2026-05-05 18:06 4.70349 -74.14370 8373 ft 10 kts 35°
2026-05-05 18:06 4.70429 -74.14333 8373 ft 9 kts 317°
2026-05-05 18:06 4.70468 -74.14385 8373 ft 10 kts 307°
2026-05-05 18:07 4.70514 -74.14445 8373 ft 12 kts 307°
2026-05-05 18:07 4.70570 -74.14518 8372 ft 14 kts 307°
2026-05-05 18:07 4.70636 -74.14603 8373 ft 16 kts 309°
2026-05-05 18:07 4.70700 -74.14691 8371 ft 12 kts 306°
2026-05-05 18:08 4.70756 -74.14765 8373 ft 14 kts 307°
2026-05-05 18:08 4.70816 -74.14842 8373 ft 14 kts 308°
2026-05-05 18:08 4.70877 -74.14924 8373 ft 15 kts 308°
2026-05-05 18:08 4.70940 -74.15009 8373 ft 16 kts 308°
2026-05-05 18:09 4.71007 -74.15098 8373 ft 16 kts 307°
2026-05-05 18:09 4.71074 -74.15185 8373 ft 14 kts 308°
2026-05-05 18:09 4.71146 -74.15221 8373 ft 11 kts 357°
2026-05-05 18:09 4.71208 -74.15227 8373 ft 0 kts 353°
2026-05-05 18:10 4.71210 -74.15227 8373 ft 1 kts 353°
2026-05-05 18:11 4.71249 -74.15232 8372 ft 9 kts 353°
2026-05-05 18:11 4.71308 -74.15213 8372 ft 5 kts 48°
2026-05-05 18:11 4.71317 -74.15177 8371 ft 6 kts 112°
2026-05-05 18:11 4.71313 -74.15174 8371 ft 0 kts 129°
2026-05-05 18:12 4.71312 -74.15172 8371 ft 4 kts 129°
2026-05-05 18:12 4.71153 -74.14963 8369 ft 73 kts 127°
2026-05-05 18:13 4.70724 -74.14397 8372 ft 129 kts 127°
2026-05-05 18:13 4.70080 -74.13547 8371 ft 176 kts 127°
2026-05-05 18:13 4.69311 -74.12541 8934 ft 183 kts 127°
2026-05-05 18:13 4.68698 -74.11427 9593 ft 187 kts 98°
2026-05-05 18:14 4.68969 -74.10164 9917 ft 191 kts 54°
2026-05-05 18:14 4.69993 -74.09336 10357 ft 194 kts 22°
2026-05-05 18:14 4.71290 -74.08919 10808 ft 195 kts 22°
2026-05-05 18:14 4.72589 -74.08499 11172 ft 200 kts 22°
2026-05-05 18:15 4.73968 -74.08043 11318 ft 216 kts 21°
2026-05-05 18:15 4.75443 -74.07553 11450 ft 233 kts 23°
2026-05-05 18:15 4.77014 -74.07031 11817 ft 240 kts 22°
2026-05-05 18:15 4.78633 -74.06493 12177 ft 250 kts 21°
2026-05-05 18:16 4.80354 -74.05916 12097 ft 272 kts 21°
2026-05-05 18:16 4.82227 -74.05282 12254 ft 296 kts 21°
2026-05-05 18:16 4.84222 -74.04609 12615 ft 308 kts 21°
2026-05-05 18:16 4.86268 -74.03922 13203 ft 313 kts 21°
2026-05-05 18:17 4.88345 -74.03221 13827 ft 316 kts 22°
2026-05-05 18:17 4.90432 -74.02517 14401 ft 318 kts 21°
2026-05-05 18:17 4.92540 -74.01806 14971 ft 320 kts 21°
2026-05-05 18:17 4.94656 -74.01089 15531 ft 322 kts 21°
2026-05-05 18:18 4.96794 -74.00364 16083 ft 324 kts 22°
2026-05-05 18:18 4.98938 -73.99634 16582 ft 328 kts 22°
2026-05-05 18:18 5.01100 -73.98900 16715 ft 328 kts 22°
2026-05-05 18:18 5.03276 -73.98220 16752 ft 328 kts 18°
2026-05-05 18:19 5.05482 -73.97636 16778 ft 329 kts 17°
2026-05-05 18:19 5.07712 -73.97098 17240 ft 332 kts 17°
2026-05-05 18:19 5.09974 -73.96571 17818 ft 333 kts 16°
2026-05-05 18:19 5.12237 -73.96042 18367 ft 335 kts 17°
2026-05-05 18:20 5.14518 -73.95497 18670 ft 342 kts 18°
2026-05-05 18:20 5.16846 -73.94925 18773 ft 356 kts 17°
2026-05-05 18:20 5.19303 -73.94314 18907 ft 370 kts 18°
2026-05-05 18:20 5.21695 -73.93399 19410 ft 363 kts 32°
2026-05-05 18:21 5.23762 -73.91993 20071 ft 357 kts 43°
2026-05-05 18:21 5.25432 -73.90170 20609 ft 353 kts 57°
2026-05-05 18:21 5.26631 -73.88017 20971 ft 356 kts 70°
2026-05-05 18:21 5.27333 -73.85631 21365 ft 358 kts 77°
2026-05-05 18:22 5.27927 -73.83191 21751 ft 362 kts 76°
2026-05-05 18:22 5.28537 -73.80712 22116 ft 366 kts 76°
2026-05-05 18:22 5.29160 -73.78219 22448 ft 372 kts 76°
2026-05-05 18:22 5.29801 -73.75662 22576 ft 383 kts 76°
2026-05-05 18:23 5.30451 -73.73068 22833 ft 390 kts 76°
2026-05-05 18:23 5.31119 -73.70400 23119 ft 395 kts 76°
2026-05-05 18:23 5.31791 -73.67708 23462 ft 400 kts 75°
2026-05-05 18:23 5.32471 -73.64990 23841 ft 403 kts 76°
2026-05-05 18:24 5.33153 -73.62262 24219 ft 404 kts 76°
2026-05-05 18:24 5.33835 -73.59525 24614 ft 405 kts 75°
2026-05-05 18:24 5.34518 -73.56777 24927 ft 407 kts 75°
2026-05-05 18:24 5.35204 -73.54014 25312 ft 408 kts 76°
2026-05-05 18:25 5.35893 -73.51237 25640 ft 410 kts 76°
2026-05-05 18:25 5.36117 -73.50333 25751 ft 411 kts 76°
2026-05-05 18:25 5.37371 -73.45690 26291 ft 414 kts 69°
2026-05-05 18:25 5.38632 -73.43091 26582 ft 416 kts 58°
2026-05-05 18:26 5.39729 -73.41512 26815 ft 417 kts 51°
2026-05-05 18:26 5.41733 -73.39394 27076 ft 420 kts 42°
2026-05-05 18:26 5.43925 -73.37451 27406 ft 421 kts 41°
2026-05-05 18:26 5.46132 -73.35495 27686 ft 424 kts 42°
2026-05-05 18:27 5.48344 -73.33531 27984 ft 426 kts 42°
2026-05-05 18:27 5.51292 -73.30909 28340 ft 429 kts 42°
2026-05-05 18:27 5.53537 -73.28911 28601 ft 432 kts 42°
2026-05-05 18:27 5.55029 -73.27584 28810 ft 432 kts 42°
2026-05-05 18:28 5.59558 -73.23560 29412 ft 436 kts 41°
2026-05-05 18:28 5.61836 -73.21536 29689 ft 439 kts 42°
2026-05-05 18:28 5.64128 -73.19496 29995 ft 441 kts 42°
2026-05-05 18:29 5.66425 -73.17450 30255 ft 443 kts 41°
2026-05-05 18:29 5.68737 -73.15387 30504 ft 444 kts 42°
2026-05-05 18:29 5.71057 -73.13321 30755 ft 446 kts 41°
2026-05-05 18:29 5.73384 -73.11250 31030 ft 447 kts 41°
2026-05-05 18:30 5.75723 -73.09171 31259 ft 449 kts 41°
2026-05-05 18:30 5.78057 -73.07096 31627 ft 448 kts 41°
2026-05-05 18:30 5.80386 -73.05023 31996 ft 446 kts 42°
2026-05-05 18:30 5.82706 -73.02956 32363 ft 445 kts 41°
2026-05-05 18:31 5.85020 -73.00893 32711 ft 445 kts 41°
2026-05-05 18:31 5.87332 -72.98830 33029 ft 445 kts 41°
2026-05-05 18:31 5.89643 -72.96768 33405 ft 444 kts 41°
2026-05-05 18:31 5.91919 -72.94737 33791 ft 443 kts 41°
2026-05-05 18:32 5.94226 -72.92680 34060 ft 443 kts 41°
2026-05-05 18:32 5.96532 -72.90629 34110 ft 442 kts 41°
2026-05-05 18:32 5.98846 -72.88573 34299 ft 442 kts 41°
2026-05-05 18:32 6.01147 -72.86522 34618 ft 441 kts 41°
2026-05-05 18:33 6.03445 -72.84468 34924 ft 440 kts 42°
2026-05-05 18:33 6.05716 -72.82443 35057 ft 440 kts 42°
2026-05-05 18:33 6.10261 -72.78396 35116 ft 433 kts 42°
2026-05-05 18:34 6.14765 -72.74383 35084 ft 432 kts 41°
2026-05-05 18:34 6.19259 -72.70371 35092 ft 435 kts 42°
2026-05-05 18:35 6.23799 -72.66322 35121 ft 441 kts 41°
2026-05-05 18:35 6.28388 -72.62223 35112 ft 442 kts 42°
2026-05-05 18:36 6.32977 -72.58124 35109 ft 441 kts 42°
2026-05-05 18:36 6.37562 -72.54032 35112 ft 441 kts 42°
2026-05-05 18:37 6.42153 -72.49933 35163 ft 441 kts 42°
2026-05-05 18:37 6.46741 -72.45843 35164 ft 441 kts 42°
2026-05-05 18:38 6.51287 -72.41779 35153 ft 439 kts 42°
2026-05-05 18:38 6.55853 -72.37694 35155 ft 439 kts 42°
2026-05-05 18:39 6.60434 -72.33593 35152 ft 441 kts 42°
2026-05-05 18:39 6.65027 -72.29490 35161 ft 442 kts 42°
2026-05-05 18:40 6.69629 -72.25368 35125 ft 443 kts 41°
2026-05-05 18:40 6.74227 -72.21250 35130 ft 443 kts 41°
2026-05-05 18:41 6.78836 -72.17122 35117 ft 444 kts 41°
2026-05-05 18:41 6.83418 -72.13025 35064 ft 442 kts 41°
2026-05-05 18:42 6.88020 -72.08902 35013 ft 442 kts 41°
2026-05-05 18:42 6.92617 -72.04779 35002 ft 443 kts 41°
2026-05-05 18:43 6.97220 -72.00650 34984 ft 443 kts 41°
2026-05-05 18:43 7.01807 -71.96503 34982 ft 443 kts 46°
2026-05-05 18:44 7.06020 -71.91962 34995 ft 443 kts 47°
2026-05-05 18:44 7.10183 -71.87433 34995 ft 444 kts 47°
2026-05-05 18:45 7.14374 -71.82860 34978 ft 444 kts 47°
2026-05-05 18:45 7.18576 -71.78304 34973 ft 444 kts 47°
2026-05-05 18:46 7.22783 -71.73739 34974 ft 444 kts 47°
2026-05-05 18:46 7.26990 -71.69168 34975 ft 444 kts 47°
2026-05-05 18:47 7.31196 -71.64600 34973 ft 444 kts 47°
2026-05-05 18:47 7.35398 -71.60036 34960 ft 444 kts 47°
2026-05-05 18:48 7.39601 -71.55461 34974 ft 444 kts 47°
2026-05-05 18:48 7.43792 -71.50893 34969 ft 444 kts 47°
2026-05-05 18:49 7.47975 -71.46348 34968 ft 444 kts 47°
2026-05-05 18:49 7.52175 -71.41778 34974 ft 445 kts 47°
2026-05-05 18:50 7.56377 -71.37196 34964 ft 445 kts 47°
2026-05-05 18:50 7.60584 -71.32622 34974 ft 445 kts 47°
2026-05-05 18:51 7.64792 -71.28042 34981 ft 445 kts 47°
2026-05-05 18:51 7.68968 -71.23482 34978 ft 445 kts 47°
2026-05-05 18:52 7.73170 -71.18902 34980 ft 445 kts 47°
2026-05-05 18:52 7.77376 -71.14320 34985 ft 445 kts 47°
2026-05-05 18:53 7.81576 -71.09734 34989 ft 445 kts 47°
2026-05-05 18:53 7.85772 -71.05148 34982 ft 445 kts 47°
2026-05-05 18:54 7.89974 -71.00564 34988 ft 445 kts 47°
2026-05-05 18:54 7.94173 -70.95982 34997 ft 445 kts 47°
2026-05-05 18:55 7.98367 -70.91398 34997 ft 445 kts 47°
2026-05-05 18:55 8.02568 -70.86815 34984 ft 445 kts 47°
2026-05-05 18:56 8.06766 -70.82224 34991 ft 445 kts 47°
2026-05-05 18:56 8.10946 -70.77653 34987 ft 446 kts 47°
2026-05-05 18:57 8.15153 -70.73054 34972 ft 446 kts 47°
2026-05-05 18:57 8.19363 -70.68441 34984 ft 446 kts 47°
2026-05-05 18:58 8.23570 -70.63829 34977 ft 447 kts 47°
2026-05-05 18:58 8.27780 -70.59223 34961 ft 447 kts 47°
2026-05-05 18:59 8.32000 -70.54612 34980 ft 447 kts 47°
2026-05-05 18:59 8.36216 -70.49996 34994 ft 446 kts 47°
2026-05-05 19:00 8.40423 -70.45382 34971 ft 446 kts 47°
2026-05-05 19:00 8.44626 -70.40771 34993 ft 446 kts 47°
2026-05-05 19:01 8.48827 -70.36162 34991 ft 446 kts 47°
2026-05-05 19:01 8.53032 -70.31549 34965 ft 446 kts 47°
2026-05-05 19:02 8.57211 -70.26965 34984 ft 446 kts 47°
2026-05-05 19:02 8.61414 -70.22344 34979 ft 446 kts 47°
2026-05-05 19:03 8.65572 -70.17689 34976 ft 446 kts 48°
2026-05-05 19:03 8.69669 -70.12988 34974 ft 445 kts 48°
2026-05-05 19:04 8.73759 -70.08288 34988 ft 445 kts 47°
2026-05-05 19:04 8.77861 -70.03595 34978 ft 445 kts 48°
2026-05-05 19:05 8.81971 -69.98912 34967 ft 445 kts 47°
2026-05-05 19:05 8.86077 -69.94234 34990 ft 445 kts 47°
2026-05-05 19:06 8.90184 -69.89543 34980 ft 445 kts 47°
2026-05-05 19:06 8.94288 -69.84853 34970 ft 446 kts 47°
2026-05-05 19:07 8.97708 -69.80950 34990 ft 446 kts 47°
2026-05-05 19:07 9.02514 -69.75463 34970 ft 446 kts 47°
2026-05-05 19:08 9.06625 -69.70757 34978 ft 446 kts 47°
2026-05-05 19:08 9.10734 -69.66052 34974 ft 446 kts 47°
2026-05-05 19:09 9.14816 -69.61378 34980 ft 446 kts 47°
2026-05-05 19:09 9.18933 -69.56666 34983 ft 446 kts 47°
2026-05-05 19:10 9.23043 -69.51964 34974 ft 446 kts 47°
2026-05-05 19:10 9.27158 -69.47251 34980 ft 447 kts 47°
2026-05-05 19:11 9.31271 -69.42531 34977 ft 447 kts 47°
2026-05-05 19:11 9.35385 -69.37808 34965 ft 447 kts 47°
2026-05-05 19:12 9.39507 -69.33082 34975 ft 447 kts 47°
2026-05-05 19:12 9.43625 -69.28368 34973 ft 447 kts 47°
2026-05-05 19:13 9.47743 -69.23653 34963 ft 447 kts 47°
2026-05-05 19:13 9.51864 -69.18921 34976 ft 448 kts 47°
2026-05-05 19:14 9.55947 -69.14213 34978 ft 447 kts 47°
2026-05-05 19:14 9.60061 -69.09479 34958 ft 447 kts 48°
2026-05-05 19:15 9.63492 -69.05547 34967 ft 447 kts 47°
2026-05-05 19:15 9.67615 -69.00826 34968 ft 447 kts 46°
2026-05-05 19:16 9.71730 -68.96087 34955 ft 447 kts 47°
2026-05-05 19:16 9.75835 -68.91348 34962 ft 447 kts 46°
2026-05-05 19:17 9.79957 -68.86619 34964 ft 447 kts 46°
2026-05-05 19:17 9.84079 -68.81885 34967 ft 447 kts 46°
2026-05-05 19:18 9.88197 -68.77144 34970 ft 448 kts 47°
2026-05-05 19:18 9.92313 -68.72396 34972 ft 448 kts 47°
2026-05-05 19:19 9.96438 -68.67647 34969 ft 449 kts 48°
2026-05-05 19:19 10.00562 -68.62896 34974 ft 449 kts 47°
2026-05-05 19:20 10.04709 -68.58126 33958 ft 459 kts 46°
2026-05-05 19:20 10.06835 -68.55688 32675 ft 473 kts 46°
2026-05-05 19:20 10.09017 -68.53183 31859 ft 474 kts 46°
2026-05-05 19:21 10.11190 -68.50685 31313 ft 470 kts 45°
2026-05-05 19:21 10.13342 -68.48204 30659 ft 468 kts 46°
2026-05-05 19:21 10.15495 -68.45722 29999 ft 467 kts 46°
2026-05-05 19:21 10.17642 -68.43251 29256 ft 465 kts 46°
2026-05-05 19:22 10.19767 -68.40806 28566 ft 461 kts 46°
2026-05-05 19:22 10.21885 -68.38367 27856 ft 458 kts 46°
2026-05-05 19:22 10.23990 -68.35944 27117 ft 456 kts 46°
2026-05-05 19:22 10.26078 -68.33540 26356 ft 455 kts 46°
2026-05-05 19:23 10.28171 -68.31127 25575 ft 454 kts 47°
2026-05-05 19:23 10.30260 -68.28720 24786 ft 453 kts 47°
2026-05-05 19:23 10.32320 -68.26345 24006 ft 452 kts 46°
2026-05-05 19:23 10.34396 -68.23950 23161 ft 451 kts 47°
2026-05-05 19:24 10.36462 -68.21567 22356 ft 446 kts 47°
2026-05-05 19:24 10.38503 -68.19216 21593 ft 441 kts 48°
2026-05-05 19:24 10.40528 -68.16884 20829 ft 437 kts 48°
2026-05-05 19:24 10.42527 -68.14585 20071 ft 432 kts 49°
2026-05-05 19:25 10.44507 -68.12305 19337 ft 428 kts 49°
2026-05-05 19:25 10.46443 -68.10029 18629 ft 424 kts 53°
2026-05-05 19:25 10.48023 -68.07527 17902 ft 419 kts 64°
2026-05-05 19:25 10.49104 -68.04809 17234 ft 412 kts 74°
2026-05-05 19:26 10.49788 -68.01996 16619 ft 407 kts 77°
2026-05-05 19:26 10.50439 -67.99219 16000 ft 403 kts 77°
2026-05-05 19:26 10.51096 -67.96453 15381 ft 400 kts 77°
2026-05-05 19:26 10.51750 -67.93717 14759 ft 397 kts 77°
2026-05-05 19:27 10.52400 -67.91000 14131 ft 395 kts 77°
2026-05-05 19:27 10.53046 -67.88287 13437 ft 394 kts 77°
2026-05-05 19:27 10.53680 -67.85596 12757 ft 390 kts 77°
2026-05-05 19:27 10.54308 -67.82927 12086 ft 386 kts 78°
2026-05-05 19:28 10.54932 -67.80283 11412 ft 383 kts 78°
2026-05-05 19:28 10.55467 -67.78026 10933 ft 377 kts 78°
2026-05-05 19:28 10.56067 -67.75497 10802 ft 359 kts 78°
2026-05-05 19:28 10.56637 -67.73092 10687 ft 342 kts 78°
2026-05-05 19:29 10.57174 -67.70816 10572 ft 328 kts 78°
2026-05-05 19:29 10.57695 -67.68606 10456 ft 315 kts 78°
2026-05-05 19:29 10.58139 -67.66469 10344 ft 302 kts 85°
2026-05-05 19:29 10.58243 -67.64379 10210 ft 292 kts 90°
2026-05-05 19:30 10.58309 -67.62345 10055 ft 284 kts 90°
2026-05-05 19:30 10.58377 -67.60335 9972 ft 285 kts 90°
2026-05-05 19:30 10.58444 -67.58312 9626 ft 288 kts 90°
2026-05-05 19:30 10.58511 -67.56277 9219 ft 288 kts 90°
2026-05-05 19:31 10.58579 -67.54248 8859 ft 287 kts 90°
2026-05-05 19:31 10.58649 -67.52215 8483 ft 287 kts 89°
2026-05-05 19:31 10.58723 -67.50194 8161 ft 285 kts 90°
2026-05-05 19:31 10.58796 -67.48180 7743 ft 287 kts 90°
2026-05-05 19:32 10.58868 -67.46172 7368 ft 286 kts 90°
2026-05-05 19:32 10.58938 -67.44161 7109 ft 282 kts 90°
2026-05-05 19:32 10.59009 -67.42175 6771 ft 281 kts 90°
2026-05-05 19:32 10.59078 -67.40185 6443 ft 281 kts 90°
2026-05-05 19:33 10.59144 -67.38233 6112 ft 280 kts 90°
2026-05-05 19:33 10.59211 -67.36239 5784 ft 278 kts 90°
2026-05-05 19:33 10.59276 -67.34275 5450 ft 276 kts 89°
2026-05-05 19:33 10.59340 -67.32349 5123 ft 276 kts 90°
2026-05-05 19:34 10.59404 -67.30405 4816 ft 275 kts 90°
2026-05-05 19:34 10.59470 -67.28473 4490 ft 273 kts 89°
2026-05-05 19:34 10.59537 -67.26541 4161 ft 273 kts 88°
2026-05-05 19:35 10.59660 -67.22901 3994 ft 237 kts 89°
2026-05-05 19:35 10.59714 -67.21281 4008 ft 222 kts 89°
2026-05-05 19:35 10.59764 -67.19718 3945 ft 222 kts 89°
2026-05-05 19:35 10.59807 -67.18102 3429 ft 236 kts 88°
2026-05-05 19:36 10.59849 -67.16388 2763 ft 249 kts 88°
2026-05-05 19:36 10.59896 -67.14579 2088 ft 262 kts 89°
2026-05-05 19:36 10.59943 -67.12751 1813 ft 252 kts 88°
2026-05-05 19:36 10.59984 -67.11064 1679 ft 232 kts 88°
2026-05-05 19:37 10.60023 -67.09466 1543 ft 212 kts 89°
2026-05-05 19:37 10.60058 -67.08036 1417 ft 196 kts 89°
2026-05-05 19:37 10.60088 -67.06749 1447 ft 171 kts 88°
2026-05-05 19:37 10.60098 -67.05586 1201 ft 158 kts 92°
2026-05-05 19:38 10.60080 -67.05018 1069 ft 153 kts 91°
2026-05-05 19:38 10.60107 -67.03997 850 ft 145 kts 88°
2026-05-05 19:38 10.60277 -67.02918 1281 ft 165 kts 58°
2026-05-05 19:38 10.61229 -67.02205 1774 ft 185 kts 16°
2026-05-05 19:39 10.62581 -67.01952 1999 ft 210 kts 11°
2026-05-05 19:39 10.64057 -67.01692 2548 ft 218 kts 11°
2026-05-05 19:39 10.65573 -67.01424 3230 ft 223 kts 10°
2026-05-05 19:39 10.67127 -67.01149 3556 ft 228 kts 11°
2026-05-05 19:40 10.68709 -67.00826 3778 ft 239 kts 18°
2026-05-05 19:40 10.70242 -67.00291 3924 ft 229 kts 19°
2026-05-05 19:40 10.71814 -67.00133 3986 ft 229 kts 352°
2026-05-05 19:40 10.73341 -67.00785 4004 ft 259 kts 322°
2026-05-05 19:41 10.74440 -67.02289 4004 ft 280 kts 288°
2026-05-05 19:41 10.74554 -67.04241 4003 ft 280 kts 253°
2026-05-05 19:41 10.73611 -67.05926 4001 ft 276 kts 224°
2026-05-05 19:41 10.72369 -67.07411 3994 ft 277 kts 238°
2026-05-05 19:42 10.71542 -67.09195 3997 ft 279 kts 246°
2026-05-05 19:42 10.70829 -67.10981 3997 ft 265 kts 246°
2026-05-05 19:42 10.69949 -67.12554 3997 ft 247 kts 226°
2026-05-05 19:42 10.68696 -67.13646 3997 ft 230 kts 214°
2026-05-05 19:43 10.67439 -67.14599 4000 ft 219 kts 215°
2026-05-05 19:43 10.66239 -67.15457 3997 ft 203 kts 205°
2026-05-05 19:43 10.64935 -67.15919 3997 ft 197 kts 186°
2026-05-05 19:43 10.63595 -67.15936 4000 ft 194 kts 168°
2026-05-05 19:44 10.62315 -67.15530 3999 ft 193 kts 151°
2026-05-05 19:44 10.61223 -67.14745 3918 ft 191 kts 134°
2026-05-05 19:44 10.60430 -67.13663 3560 ft 195 kts 115°
2026-05-05 19:44 10.60008 -67.12328 3035 ft 203 kts 97°
2026-05-05 19:45 10.60015 -67.10880 2550 ft 202 kts 85°
2026-05-05 19:45 10.60084 -67.09499 2067 ft 191 kts 89°
2026-05-05 19:45 10.60108 -67.08219 1775 ft 168 kts 88°
2026-05-05 19:45 10.60130 -67.07092 1460 ft 156 kts 90°
2026-05-05 19:46 10.60084 -67.06003 1137 ft 151 kts 91°
2026-05-05 19:46 10.60084 -67.04959 937 ft 145 kts 89°
2026-05-05 19:46 10.60116 -67.03939 780 ft 144 kts 87°
2026-05-05 19:46 10.60166 -67.02947 624 ft 141 kts 88°
2026-05-05 19:47 10.60190 -67.01941 432 ft 144 kts 84°
2026-05-05 19:47 10.60221 -67.00942 241 ft 141 kts 86°
2026-05-05 19:47 10.60250 -67.00063 221 ft 106 kts 90°
2026-05-05 19:47 10.60270 -66.99462 199 ft 61 kts 88°
2026-05-05 19:48 10.60279 -66.99177 193 ft 28 kts 86°
2026-05-05 19:48 10.60286 -66.99011 186 ft 21 kts 89°
2026-05-05 19:48 10.60277 -66.98876 184 ft 13 kts 120°
2026-05-05 19:48 10.60299 -66.98850 183 ft 6 kts 297°
2026-05-05 19:49 10.60288 -66.98919 185 ft 15 kts 261°
2026-05-05 19:49 10.60284 -66.99002 186 ft 19 kts 269°
2026-05-05 19:49 10.60277 -66.99193 192 ft 21 kts 269°
2026-05-05 19:49 10.60273 -66.99345 201 ft 23 kts 268°
2026-05-05 19:50 10.60268 -66.99511 201 ft 23 kts 269°
2026-05-05 19:50 10.60255 -66.99660 205 ft 14 kts 232°
2026-05-05 19:50 10.60185 -66.99668 205 ft 10 kts 180°
2026-05-05 19:50 10.60137 -66.99686 209 ft 7 kts 263°
2026-05-05 19:51 10.60138 -66.99761 212 ft 13 kts 267°
2026-05-05 19:51 10.60134 -66.99869 221 ft 17 kts 267°
2026-05-05 19:51 10.60121 -66.99995 219 ft 18 kts 268°
2026-05-05 19:51 10.60118 -67.00119 222 ft 17 kts 268°
2026-05-05 19:52 10.60114 -67.00237 224 ft 16 kts 269°
2026-05-05 19:52 10.60071 -67.00295 225 ft 10 kts 181°
2026-05-05 19:52 10.60001 -67.00297 227 ft 10 kts 178°
2026-05-05 19:52 10.59931 -67.00304 226 ft 10 kts 227°
2026-05-05 19:53 10.59923 -67.00370 226 ft 10 kts 268°
2026-05-05 19:53 10.59923 -67.00455 228 ft 14 kts 270°
2026-05-05 19:53 10.59917 -67.00558 229 ft 16 kts 269°
2026-05-05 19:53 10.59914 -67.00679 231 ft 17 kts 267°
2026-05-05 19:54 10.59910 -67.00799 234 ft 17 kts 268°
2026-05-05 19:54 10.59907 -67.00913 235 ft 14 kts 269°
2026-05-05 19:54 10.59894 -67.00971 237 ft 5 kts 208°
2026-05-05 19:54 10.59860 -67.00970 237 ft 6 kts 177°
2026-05-05 19:55 10.59819 -67.00969 237 ft 4 kts 178°
2026-05-05 19:55 10.59812 -67.00969 237 ft 0 kts 178°
2026-05-05 20:03 10.59809 -67.00968 214 ft 0 kts 178°
2026-05-05 20:04 10.60080 -67.05018 1043 ft 153 kts 91°
2026-05-05 20:04 10.60123 -67.07476 1577 ft 157 kts 88°
2026-05-05 20:04 10.60101 -67.06375 1217 ft 153 kts 92°
2026-05-05 20:04 10.60079 -67.05314 964 ft 148 kts 89°
2026-05-05 20:05 10.60098 -67.04290 798 ft 143 kts 87°
2026-05-05 20:05 10.60155 -67.03283 647 ft 142 kts 86°
2026-05-05 20:05 10.60174 -67.02278 476 ft 142 kts 87°
2026-05-05 20:05 10.60212 -67.01271 258 ft 140 kts 86°
2026-05-05 20:06 10.60242 -67.00337 175 ft 119 kts 88°
2026-05-05 20:06 10.60199 -67.01739 372 ft 142 kts 86°
2026-05-05 20:06 10.60227 -67.00757 181 ft 135 kts 88°
2026-05-05 20:06 10.60252 -66.99922 166 ft 100 kts 87°
2026-05-05 20:07 10.60272 -66.99383 149 ft 51 kts 88°